Regional Weather Roundup
Issued by NWS Albany, NY

Home | Current Version | Previous Version | Text Only | Print | Product List | Glossary On
Versions: 1 2 3 4 5 6 7 8 9 10 11 12 13 14 15 16 17 18 19 20 21 22 23 24 25 26 27 28
000
ASUS41 KALY 280010
RWRALY

NEW YORK STATE HOURLY WEATHER ROUNDUP
NATIONAL WEATHER SERVICE ALBANY NY
800 PM EDT FRI MAY 27 2016

NOTE: "FAIR" INDICATES FEW OR NO CLOUDS BELOW 12,000 FEET WITH NO
SIGNIFICANT WEATHER AND/OR NO OBSTRUCTIONS TO VISIBILITY.

NYZ032-033-038>043-046>054-057>066-NYZ062>081-082-084-280100-
EAST


CITY           SKY/WX    TMP DP  RH WIND       PRES   REMARKS
ALBANY         MOCLDY    79  66  64 S9        29.97S
GLENS FALLS    PTCLDY    83  66  56 S8        29.95R
POUGHKEEPSIE   CLEAR     78  68  71 SE3       29.99S
NEWBURGH       PTCLDY    75  70  83 SE9       30.02S
MONTGOMERY     CLEAR     75  71  87 CALM      30.00S
WHITE PLAINS   CLEAR     72  62  71 SE6       30.02F
ISLIP          PTCLDY    68  58  70 SW15      30.06S
NEW YORK CITY  MOCLDY    77  68  73 S9        30.00S
CENTRAL PARK   PTCLDY    78  63  59 CALM      30.04R
$$

NYZ005>009-017-018-044>046-055-056-280100-
CENTRAL


CITY           SKY/WX    TMP DP  RH WIND       PRES   REMARKS
FULTON         PTCLDY    76  71  85 CALM      29.98R
SYRACUSE       MOCLDY    76  66  71 SE3       29.97S
ROME           PTCLDY    77  68  73 NW7       29.98S
ELMIRA         CLEAR     79  65  62 CALM      29.99R
BINGHAMTON     CLOUDY    71  68  90 S3        30.05R
MONTICELLO     CLOUDY    75  66  73 S6        30.06S
$$

NYZ026>034-041>043-087-280100-
NORTH


CITY           SKY/WX    TMP DP  RH WIND       PRES   REMARKS
WATERTOWN      PTCLDY    75  66  73 S3        29.97R
FORT DRUM      NOT AVBL
MASSENA        MOCLDY    80  65  59 SW12      29.92R
SARANAC LAKE   CLEAR     78  58  49 W6        30.00R
PLATTSBURGH    PTCLDY    86  60  41 CALM      29.89R
$$

NYZ001>004-010>016-019>021-085-280100-
WEST


CITY           SKY/WX    TMP DP  RH WIND       PRES   REMARKS
NIAGARA FALLS  MOCLDY    79  61  53 SW9       29.98R
BUFFALO        CLOUDY    72  62  71 SW9       30.00R
DUNKIRK        MOCLDY    76  63  64 CALM      30.01R
JAMESTOWN      PTCLDY    75  63  64 N3        30.05S
WELLSVILLE     MOCLDY    77  59  53 SW6       30.08R
ROCHESTER      MOCLDY    82  59  45 W3        29.98R
PENN YAN       CLEAR     79  65  62 CALM      30.01R
$$

             KEY
       WCI = WIND CHILL INDEX
       VSB = VISIBILITY
       HX  = HEAT INDEX
$$




USA.gov is the U.S. government's official web portal to all federal, state and local government web resources and services.